Location: Wangen+im+Allg�u
(47.7098°N, 9.8383°E)
Time: 10:02:21
(UTC+02:00)

Tiangong 2 - Visible Passes

Search period start: 28 May 2018 00:00
Search period end: 07 June 2018 00:00
Orbit: 382 x 385 km, 42.8° (Epoch: 28 May)

Date Brightness Start Highest point End Pass type
(mag) Time Alt. Az. Time Alt. Az. Time Alt. Az.
28 May 2.2 22:25:00 10° WSW 22:27:46 28° S 22:29:17 19° SE visible
29 May 2.9 23:02:08 10° WSW 23:04:12 17° SSW 23:04:12 17° SSW visible
30 May 2.6 22:02:05 10° WSW 22:04:39 23° SSW 22:06:56 12° SE visible
31 May 3.4 22:39:47 10° SW 22:41:04 12° SSW 22:41:50 11° SSW visible
